Tracking 18784 objects as of 18-August-2017
HD Live streaming from Space Station
objects crossing your sky now

50 SAT

Track 50 SAT now!
10-day predictions
50 SAT is classified as:


NORAD ID: 39436
Int'l Code: 2013-066W
Perigee: 448.2 km
Apogee: 462.1 km
Inclination: 97.7 °
Period: 93.5 minutes
Semi major axis: 6826 km
RCS: Unknown
Launch date: November 21, 2013
Source: (TBD)
Launch site: Orenburg, Russia (OREN)
Uplink (MHz):
Downlink (MHz): 437.505
Beacon (MHz): 437.505
Mode: 9600bps GFSK RTTY CW
Call sign:
Status: Active

Your satellite tracking list
Your tracking list is empty





NASA's NSSDC Master Catalog

Two Line Element Set (TLE):
1 39436U 13066W   17230.25381683  .00032636  00000-0  83358-3 0  9990
2 39436  97.7109 339.3369 0010215 213.2676 146.7928 15.39360765206192
Source of the keplerian elements: Caltech